This demonstration page uses our WeatherBlox Daily Observations layout. Learn more.

Left ArrowRight Arrow

Hourly Observations for June 23, 2019

Temp ( °F °C ) Dew Point ( °F °C ) Humidity (%) Winds ( mph kmh ) Pressure ( in mb ) Visibility ( mi km ) Precip ( " mm )
12:53 am 00:53 Clear 49 9.4 46 7.8 90 90 SW 6 9 29.88 1012 10 16 0.00 0.00
1:53 am 01:53 Partly Cloudy 50 10 47 8.3 89 89 SSW 9 15 29.87 1012 10 16 0.00 0.00
2:53 am 02:53 Clear 51 10.6 47 8.3 86 86 SW 9 15 29.87 1012 10 16 0.00 0.00
3:53 am 03:53 Clear 51 10.6 46 7.8 83 83 SW 12 19 29.86 1011 10 16 0.00 0.00
4:53 am 04:53 Clear 51 10.6 46 7.8 83 83 SSW 12 19 29.85 1011 10 16 0.00 0.00
5:53 am 05:53 Partly Cloudy 51 10.6 46 7.8 83 83 SW 10 17 29.85 1011 10 16 0.00 0.00
6:53 am 06:53 Sunny 56 13.3 47 8.3 72 72 SW 13 20 29.84 1011 10 16 0.00 0.00
7:53 am 07:53 Sunny 59 15 47 8.3 64 64 SW 16 26 29.84 1010 10 16 0.00 0.00
8:53 am 08:53 Mostly Sunny 61 16.1 47 8.3 60 60 SW 13 20 29.84 1010 10 16 0.00 0.00
9:53 am 09:53 Sunny 63 17.2 47 8.3 56 56 WSW 14 22 29.84 1011 10 16 0.00 0.00
10:53 am 10:53 Mostly Cloudy 66 18.9 50 10 56 56 SW 12 19 29.83 1010 10 16 0.00 0.00
11:53 am 11:53 Sunny 71 21.7 46 7.8 41 41 W 14 22 29.80 1009 10 16 0.00 0.00
12:53 pm 12:53 Sunny 71 21.7 45 7.2 39 39 WSW 10 17 29.79 1009 10 16 0.00 0.00
1:53 pm 13:53 Sunny 72 22.2 46 7.8 40 40 W 9 15 29.78 1008 10 16 0.00 0.00
2:53 pm 14:53 Mostly Cloudy 67 19.4 50 10 55 55 NNW 12 19 29.78 1009 10 16 0.00 0.00
3:53 pm 15:53 Mostly Sunny 69 20.6 46 7.8 44 44 W 14 22 29.77 1008 10 16 0.00 0.00
4:53 pm 16:53 Sunny 73 22.8 47 8.3 40 40 W 10 17 29.74 1007 10 16 0.00 0.00
5:53 pm 17:53 Mostly Cloudy 70 21.1 47 8.3 44 44 WNW 21 33 29.74 1007 10 16 0.00 0.00
6:53 pm 18:53 Mostly Sunny 68 20 49 9.4 51 51 NW 17 28 29.75 1007 10 16 0.00 0.03
7:53 pm 19:53 Mostly Cloudy 65 18.3 47 8.3 52 52 W 7 11 29.75 1008 10 16 0.00 0.03
8:53 pm 20:53 Mostly Cloudy 62 16.7 50 10 65 65 SW 7 11 29.75 1008 10 16 0.00 0.00
9:53 pm 21:53 Cloudy 60 15.6 51 10.6 72 72 SW 9 15 29.77 1008 10 16 0.00 0.00
10:53 pm 22:53 Cloudy 59 15 52 11.1 78 78 SW 9 15 29.76 1008 10 16 0.00 0.00
11:53 pm 23:53 Mostly Clear 58 14.4 49 9.4 72 72 WNW 9 15 29.76 1008 10 16 0.00 0.00

Powered by AerisWeather